This demonstration page uses our WeatherBlox Daily Observations layout. Learn more.

Left ArrowRight Arrow

Hourly Observations for August 14, 2020

Temp ( °F °C ) Dew Point ( °F °C ) Humidity (%) Winds ( mph kmh ) Pressure ( in mb ) Visibility ( mi km ) Precip ( " mm )
12:53 am 00:53 Clear 69 20.6 66 18.9 90 90 S 3 6 30.00 1016 10 16 N/A
1:53 am 01:53 Clear 70 21.1 66 18.9 87 87 N N/A 29.99 1016 10 16 N/A
2:53 am 02:53 Clear 68 20 66 18.9 93 93 N N/A 29.98 1015 10 16 N/A
3:53 am 03:53 Clear 67 19.4 65 18.3 93 93 N N/A 29.97 1015 10 16 N/A
4:53 am 04:53 Clear 67 19.4 65 18.3 93 93 N N/A 29.95 1014 10 16 N/A
5:53 am 05:53 Clear 67 19.4 66 18.9 97 97 N N/A 29.95 1014 10 16 N/A
6:53 am 06:53 Sunny 68 20 66 18.9 93 93 N N/A 29.96 1015 10 16 N/A
7:53 am 07:53 Sunny 69 20.6 68 20 96 96 N N/A 29.99 1016 10 16 N/A
8:53 am 08:53 Sunny 74 23.3 68 20 82 82 NNE 3 6 29.98 1015 10 16 N/A
9:53 am 09:53 Sunny 76 24.4 68 20 77 77 NNW 5 7 29.98 1015 10 16 N/A
10:53 am 10:53 Sunny 80 26.7 70 21.1 71 71 N N/A 29.98 1015 10 16 N/A
11:53 am 11:53 Partly Cloudy 79 26.1 70 21.1 74 74 SE 3 6 30.00 1016 10 16 N/A
12:53 pm 12:53 Mostly Cloudy with Light Rain 78 25.6 72 22.2 82 82 N N/A 29.99 1016 10 16 0.00 0.00
1:53 pm 13:53 Partly Cloudy 79 26.1 73 22.8 82 82 N N/A 29.98 1015 10 16 0.00 0.00
2:53 pm 14:53 Cloudy with Light Rain 79 26.1 73 22.8 82 82 W 3 6 29.96 1015 10 16 0.01 0.25
3:53 pm 15:53 Partly Cloudy with Light Rain 80 26.7 74 23.3 82 82 VRB 3 6 29.94 1014 10 16 0.00 0.00
4:50 pm 16:50 Mostly Cloudy 82 28 73 23 74 74 N N/A 29.91 1013 10 16 0.00 0.00
4:53 pm 16:53 Mostly Cloudy 82 27.8 74 23.3 77 77 N N/A 29.93 1014 10 16 0.00 0.00
5:15 pm 17:15 Partly Cloudy 82 27.8 71 21.7 69 69 NNW 5 7 29.91 1013 10 16 N/A
5:53 pm 17:53 Sunny 82 27.8 71 21.7 69 69 NNW 5 7 29.92 1013 10 16 N/A
6:53 pm 18:53 Mostly Sunny 81 27.2 70 21.1 69 69 NE 6 9 29.93 1014 10 16 N/A
7:53 pm 19:53 Partly Cloudy 79 26.1 68 20 69 69 N N/A 29.93 1014 10 16 N/A
8:53 pm 20:53 Mostly Clear 75 23.9 70 21.1 84 84 NW 3 6 29.93 1014 10 16 N/A
9:53 pm 21:53 Mostly Cloudy 78 25.6 68 20 71 71 NE 5 7 29.94 1014 10 16 N/A
10:53 pm 22:53 Cloudy 73 22.8 67 19.4 81 81 E 12 19 29.97 1015 10 16 0.00 0.00
11:53 pm 23:53 Cloudy 72 22.2 65 18.3 79 79 ENE 5 7 29.96 1015 10 16 N/A

Powered by AerisWeather